Picosat 1

operational
NORAD ID: 26080 Int'l Des: 2000-004 Owner: DARPA2 Country: US
LEOCIRCULARRETROGRADE

About Picosat 1

Description loading...

Live Position

Loading 3D Globe...

Upcoming Passes

Altitude History

Altitude vs Time

uPlot chart will show altitude changes over time

Two-Line Element Set

1 26080U 00004H 26062.50228358 .00001035 00000-0 29630-3 0 9991
2 26080 100.2236 76.5982 0030257 107.1721 253.2782 14.47567835371623
Epoch: Mar 3, 2026 • Age: 33 hours

Current Status

Altitude 771.3 km
Velocity 7.46 km/s
Sub-Earth Point -58.42°S, 57.39°W
Launch Date Jan 27, 2000
Age 26 years
Type other

Technical Details

Classification Payload
Mass 0.25 kg
Dry Mass 0.25 kg
Total Mass 0.50 kg
Length 0.03 m
Diameter 0.10 m
Span 30.00 m
Shape 2 Box + Tether
Manufacturer AERO
Bus Type Picosat
Phase Status In Orbit
Owner/State DARPA2/US

Large Constellations

Loading constellations...